Home > Weather > Palikir > Past weeks

Flag for Micronesia Weather for the Past 2 Weeks in Palikir, Pohnpei, Micronesia

Now
85 °F

Broken clouds.


Feels Like: 91 °F
Forecast: 79 / 84 °F
Wind: 3 mph from Northeast

Location: Pohnpei

Current Time: Feb 9, 2016 at 2:41:43 PM

Latest Report: Feb 9, 2016 at 1:52 PM


Visibility: 15 mi

Pressure: 29.78 "Hg

Humidity: 66%

Dew point: 72 °F

Location of PalikirLocation

Historic Weather in Palikir — Graph

°F

Palikir Temperature Yesterday

Maximum temperature yesterday: 86 °F (at 11:52 AM)
Minimum temperature yesterday: 80 °F (at 3:53 AM)
Average temperature yesterday: 82 °F

High & Low Weather Summary for the Past Weeks

 TemperatureHumidityPressure
High87 °F (Feb 9, 11:52 AM)96% (Feb 3, 10:52 PM)29.98 "Hg (Feb 3, 10:52 PM)
Low76 °F (Feb 4, 3:52 AM)62% (Jan 29, 12:51 PM)29.76 "Hg (Feb 5, 2:51 PM)
Average82 °F77%29.87 "Hg
* Reported Jan 25 12:50 PM — Feb 9 12:53 PM, Palikir, Weather by CustomWeather, © 2016

Note: Actual official high and low records may vary slightly from our data, if they occured in-between our weather recording intervals... More about our weather records

Advertising

Palikir Weather History for the Previous 24 Hours

 ConditionsComfort  
Time TempWeatherWind HumidityBarometerVisibility
12:53 PM
Tue, Feb 9
86 °FMore clouds than sun.6 mph70%29.80 "Hg15 mi
11:52 AM87 °FBroken clouds.6 mph67%29.83 "Hg15 mi
10:52 AM85 °FBroken clouds.3 mph70%29.85 "Hg15 mi
9:51 AM84 °FBroken clouds.3 mph73%29.87 "Hg15 mi
8:52 AM82 °FMore clouds than sun.5 mph75%29.87 "Hg15 mi
7:52 AM82 °FMore clouds than sun.5 mph78%29.85 "Hg15 mi
6:51 AM81 °FMore clouds than sun.3 mph76%29.83 "Hg15 mi
6:04 AM81 °FMostly cloudy.2 mph79%29.82 "Hg15 mi
5:52 AM81 °FOvercast.7 mph77%29.82 "Hg15 mi
4:51 AM81 °FMostly cloudy.5 mph76%29.80 "Hg15 mi
3:52 AM80 °FPartly cloudy.5 mph78%29.80 "Hg15 mi
2:52 AM81 °FMostly cloudy.8 mph78%29.81 "Hg15 mi
1:50 AM81 °FMostly cloudy.3 mph80%29.83 "Hg15 mi
12:57 AM81 °FMostly cloudy.5 mph78%29.86 "Hg15 mi
11:52 PM
Mon, Feb 8
81 °FPartly cloudy.9 mph76%29.88 "Hg15 mi
10:53 PM81 °FPartly cloudy.6 mph78%29.89 "Hg15 mi
9:53 PM81 °FPartly cloudy.5 mph76%29.90 "Hg15 mi
8:52 PM81 °FPartly cloudy.5 mph79%29.88 "Hg15 mi
7:52 PM81 °FPartly cloudy.3 mph81%29.88 "Hg15 mi
6:53 PM82 °FPassing clouds.7 mph81%29.86 "Hg15 mi
5:51 PM83 °FPartly sunny.8 mph76%29.84 "Hg15 mi
4:58 PM84 °FBroken clouds.9 mph72%29.83 "Hg15 mi
3:53 PM85 °FBroken clouds.6 mph71%29.83 "Hg15 mi
2:53 PM84 °FBroken clouds.7 mph73%29.84 "Hg15 mi
Weather by CustomWeather, © 2016

See weather overviewHow to use our weather pages